Regional Weather Roundup
Issued by NWS

Home | Current Version | Previous Version | Text Only | Print | Product List | Glossary Off
Versions: 1 2 3 4 5 6 7 8 9 10 11 12 13 14 15 16 17 18 19 20 21 22 23 24 25 26 27 28 29 30 31 32 33 34 35 36 37 38 39 40 41 42 43 44 45 46 47 48 49 50

000
ASUS43 KBIS 070510
RWRND

NORTH DAKOTA REGIONAL WEATHER ROUNDUP
NATIONAL WEATHER SERVICE BISMARCK ND
1200 AM CDT TUE JUL 07 2015

NOTE: "FAIR" INDICATES FEW OR NO CLOUDS BELOW 12,000 FEET WITH NO
SIGNIFICANT WEATHER AND/OR OBSTRUCTIONS TO VISIBILITY.


NDZ001>003-009>011-017-070600-
NORTHWEST NORTH DAKOTA

CITY           SKY/WX    TMP DP  RH WIND       PRES   REMARKS
WILLISTON      CLEAR     57  46  66 N5        30.17R
MINOT          CLEAR     55  46  71 CALM      30.16S
MINOT AFB      CLEAR     49  49  99 SW1       30.15S
$$

NDZ018>021-031>035-040>046-070600-
SOUTHWEST NORTH DAKOTA

CITY           SKY/WX    TMP DP  RH WIND       PRES   REMARKS
BISMARCK       CLEAR     54  50  86 CALM      30.19R
DICKINSON      CLEAR     53  49  86 E7        30.18R FOG
GARRISON         N/A     51  47  86 CALM      30.17S
HETTINGER ARPT CLEAR     55  51  86 E10       30.20R FOG
$$

NDZ004>008-012>016-024-026-027-054-070600-
NORTHEAST NORTH DAKOTA

CITY           SKY/WX    TMP DP  RH WIND       PRES   REMARKS
GRAND FORKS    CLEAR     47  45  93 W5        30.15R
GRND FRKS AFB  CLEAR     47  46  95 W5        30.16R
DEVILS LAKE    CLEAR     55  45  67 CALM      30.16R
$$

NDZ022-023-025-028>030-036>039-047>053-070600-
SOUTHEAST NORTH DAKOTA

CITY           SKY/WX    TMP DP  RH WIND       PRES   REMARKS
FARGO          CLEAR     50  45  83 N6        30.16R
JAMESTOWN      CLEAR     53  49  86 E7        30.17R
$$




USA.gov is the U.S. government's official web portal to all federal, state and local government web resources and services.